Simultaneous Nadir Overpasses (SNOs) Predictions

Prediction of SNOs between GOES-15 and METOP-C Satellite Orbit:

Table of predicted SNOs for the next 14.0 days since TLE Epoch: 4/8/2023
Index Date Time (GOES-15) GOES-15 Lat,Lon METOP-C Lat,Lon Distance(km) Time Diff (sec)
1 04/08/2023 18:05:17 -0.15,-130.32 -0.44,-129.10 140.36 80
2 04/10/2023 06:26:59 0.16,-131.08 -0.45,-133.72 301.41 80
3 04/11/2023 06:03:42 0.16,-131.57 0.81,-128.76 320.51 80
4 04/12/2023 18:25:19 -0.17,-132.32 0.04,-133.37 119.17 80
5 04/15/2023 06:21:03 0.18,-133.56 0.29,-133.03 60.05 80
6 04/16/2023 18:42:40 -0.19,-134.30 0.55,-137.64 380.24 80
7 04/17/2023 18:19:22 -0.18,-134.78 -0.67,-132.67 241.72 80
8 04/19/2023 06:41:05 0.19,-135.54 -0.21,-137.29 200.59 80
9 04/20/2023 06:17:47 0.18,-136.02 1.00,-132.32 420.63 80
10 04/21/2023 18:39:22 -0.19,-136.75 -0.13,-136.92 20.58 80
